Temp
-1 -1 -2 -2 -2 -2 -3 -2 -2 -2 -2 -2 -3 -2 -2 -1 -1 -1 -1 -1 -1 -1 -1 -1 -1 -1 -0 -1 -1 -1 -1 -1 -1 1 1 1 1 1 2 2 3 3 3
-1 -1 -2 -2 -2 -2 -3 -2 -2 -2 -3 -3 -3 -3 -2 -3 -2 -1 -1 -2 -1 -1 -1 -1 -1 -1 -1 -1 -1 -1 -1 -1 -2 -2 -0 1 1 0 1 1 2 3 3
-1 -1 -2 -2 -3 -3 -3 -2 -3 -2 -3 -3 -3 -3 -3 -3 -3 -3 -3 -3 -3 -3 -3 -2 -1 -1 -1 -1 -1 -1 -1 -1 -1 -1 -1 -1 -0 0 0 1 1 2 2
-1 -1 -2 -2 -2 -2 -2 -2 -3 -3 -3 -3 -3 -3 -3 -3 -3 -3 -3 -3 -2 -3 -3 -3 -3 -2 -1 -1 -1 -1 -1 -1 -1 -1 -1 -1 -1 -0 -0 -0 0 0 2
-1 -2 -2 -2 -2 -2 -2 -2 -3 -3 -3 -3 -3 -3 -3 -3 -3 -3 -4 -4 -3 -3 -3 -3 -3 -2 -1 -1 -1 -1 -1 -1 -1 -1 -1 -1 -1 -1 -1 -0 -0 -0 1
-1 -2 -2 -2 -2 -2 -2 -2 -2 -3 -3 -3 -4 -3 -3 -3 -2 -3 -3 -4 -4 -4 -3 -3 -3 -3 -2 -2 -1 -1 -1 -1 -1 -2 -2 -1 -1 -1 -1 -1 -1 -1 -1
-1 -1 -1 -1 -2 -2 -2 -2 -2 -2 -3 -3 -3 -4 -4 -3 -2 -3 -3 -4 -4 -4 -4 -4 -3 -3 -3 -3 -2 -2 -2 -2 -2 -2 -2 -2 -2 -1 -2 -2 -1 -1 -1
0 -0 -1 -1 -1 -1 -1 -2 -2 -2 -2 -3 -3 -3 -3 -3 -3 -3 -4 -4 -4 -4 -4 -4 -4 -3 -4 -3 -3 -3 -3 -3 -2 -2 -2 -3 -2 -2 -1 -1 -2 -2 -2
1 0 -1 -1 0 0 -0 -1 -2 -2 -2 -2 -2 -3 -3 -3 -3 -3 -3 -3 -4 -4 -4 -4 -5 -4 -4 -4 -4 -4 -4 -4 -4 -4 -4 -3 -3 -3 -3 -2 -2 -2 -2
1 0 -0 -1 -0 0 0 -0 -1 -2 -2 -2 -2 -3 -3 -3 -3 -3 -3 -3 -3 -4 -4 -5 -5 -4 -4 -4 -5 -5 -4 -4 -5 -4 -4 -4 -4 -3 -3 -3 -3 -3 -3
1 1 0 0 0 0 0 0 -0 -0 -1 -1 -1 -2 -2 -3 -3 -3 -3 -3 -3 -4 -4 -4 -5 -4 -4 -4 -5 -5 -4 -4 -5 -5 -5 -5 -4 -4 -4 -4 -4 -4 -4
0 1 1 1 1 1 1 1 0 1 0 0 0 -0 -1 -2 -1 -1 -3 -4 -4 -4 -4 -4 -4 -4 -4 -4 -4 -4 -4 -5 -5 -5 -5 -5 -5 -5 -4 -5 -5 -5 -5
-0 1 1 2 2 1 1 2 1 1 1 1 1 1 0 -0 0 -0 -1 -1 -2 -3 -3 -4 -4 -4 -4 -4 -5 -5 -5 -5 -5 -5 -5 -5 -5 -5 -5 -5 -5 -5 -5
1 1 2 2 2 2 1 1 1 1 1 1 1 1 0 0 1 0 -0 -0 -1 -2 -3 -3 -4 -3 -4 -4 -4 -5 -5 -5 -5 -5 -5 -5 -5 -5 -5 -5 -5 -5 -5
1 1 2 2 2 2 1 1 1 0 0 0 0 0 0 0 -0 -1 -0 -1 -2 -2 -2 -2 -3 -2 -3 -3 -3 -4 -4 -4 -4 -5 -6 -6 -6 -5 -5 -5 -5 -5 -5
1 1 2 2 2 2 2 2 1 1 1 0 -0 -0 -0 -0 -0 0 -0 -1 -1 -1 -1 -1 -2 -3 -3 -3 -3 -3 -3 -4 -4 -5 -5 -5 -6 -6 -5 -5 -5 -5 -5
1 1 1 2 2 2 2 1 2 1 1 1 1 1 1 1 0 0 0 -0 -1 -0 -0 -1 -2 -2 -3 -3 -3 -3 -3 -3 -4 -4 -4 -5 -5 -5 -6 -6 -5 -5 -5
1 1 2 2 2 1 2 1 1 1 2 2 1 1 2 2 1 1 1 1 1 0 -1 -2 -2 -2 -2 -2 -2 -3 -3 -2 -3 -3 -3 -4 -4 -4 -5 -5 -5 -5 -5
1 1 1 1 1 1 1 1 1 1 1 1 2 2 2 2 1 1 1 1 0 0 -0 -1 -2 -2 -2 -2 -2 -2 -2 -2 -3 -3 -3 -3 -4 -4 -4 -4 -4 -4 -4
0 1 1 1 1 1 1 1 1 1 1 1 1 1 1 2 2 1 1 1 1 0 0 -0 -1 -1 -2 -2 -1 -1 -1 -1 -2 -2 -2 -2 -3 -3 -3 -3 -3 -3 -4
1 1 0 1 1 1 1 1 1 1 1 1 0 0 0 1 0 -0 -0 -0 -0 0 -0 -0 0 0 -0 -1 -1 -1 -1 -1 -1 -1 -1 -1 -2 -2 -2 -2 -3 -3 -3
-0 0 0 0 1 1 0 0 1 0 -0 -1 -0 0 -0 -0 -0 -0 -0 -0 -0 -0 -0 -0 -0 -0 0 0 -1 -1 -1 -0 -0 -0 -1 -1 -1 -2 -2 -2 -2 -2 -2
-1 -0 -0 -1 -0 -0 -0 0 -0 -0 -0 -0 -0 0 -0 -0 -1 -1 -1 -0 0 -0 -1 -0 -0 -0 -0 -1 -0 -0 -0 -0 -0 -0 -0 -1 -1 -1 -2 -2 -2 -2 -2
-1 -1 -0 -0 -0 -0 -1 -1 -1 -2 -1 -1 -1 -1 -1 -2 -1 -1 -1 -0 -1 -1 -1 -1 -1 -1 -1 -0 -1 -0 -0 -0 -0 -0 -0 -0 -1 -1 -1 -2 -2 -2 -2
-1 -1 -1 -1 -1 -1 -1 -1 -1 -2 -1 -1 -2 -1 -1 -2 -1 -1 -1 -1 -1 -1 -1 -1 -1 -1 -1 -1 -1 -1 -0 -0 -0 -0 -0 -0 -0 -1 -1 -1 -1 -2 -2
-2 -2 -2 -2 -2 -1 -1 -1 -2 -2 -2 -2 -2 -2 -2 -2 -2 -1 -2 -2 -2 -1 -1 -2 -1 -1 -1 -1 -1 -1 -1 -0 0 -0 -0 -0 -0 -0 -1 -1 -1 -1 -1
Height
1518 1515 1509 1504 1499 1496 1490 1485 1480 1476 1471 1465 1458 1451 1446 1442 1440 1437 1435 1433 1432 1430 1428 1427 1426 1426 1425 1425 1425 1425 1426 1427 1427 1427 1428 1429 1429 1432 1434 1435 1439 1441 1443
1519 1516 1510 1504 1500 1497 1491 1486 1481 1478 1473 1467 1461 1456 1450 1446 1442 1439 1436 1434 1432 1430 1429 1427 1426 1425 1424 1423 1423 1423 1424 1425 1426 1425 1426 1427 1429 1430 1432 1433 1435 1437 1439
1519 1516 1510 1505 1501 1498 1493 1488 1483 1480 1475 1470 1464 1459 1454 1450 1446 1442 1439 1435 1432 1430 1427 1425 1424 1423 1423 1422 1421 1421 1421 1422 1422 1422 1422 1423 1425 1426 1427 1428 1430 1433 1434
1519 1517 1511 1506 1502 1498 1495 1491 1486 1481 1477 1472 1467 1462 1457 1454 1449 1445 1441 1438 1434 1431 1428 1425 1422 1421 1422 1421 1420 1419 1419 1420 1420 1419 1419 1420 1421 1422 1423 1424 1425 1427 1429
1520 1516 1512 1507 1504 1499 1495 1492 1487 1483 1478 1474 1469 1465 1460 1454 1452 1448 1444 1441 1437 1433 1430 1427 1423 1420 1420 1419 1417 1417 1417 1416 1417 1417 1417 1416 1416 1418 1419 1421 1422 1424 1426
1520 1516 1512 1508 1504 1500 1496 1492 1490 1485 1481 1476 1471 1466 1462 1457 1455 1451 1447 1444 1440 1436 1432 1428 1425 1421 1417 1417 1415 1415 1415 1414 1413 1414 1414 1414 1413 1414 1414 1414 1415 1416 1417
1520 1517 1513 1509 1505 1501 1498 1493 1491 1487 1483 1478 1473 1469 1465 1460 1457 1453 1449 1445 1442 1439 1435 1430 1426 1423 1419 1416 1415 1414 1413 1413 1412 1411 1411 1411 1409 1409 1410 1410 1410 1410 1411
1521 1517 1514 1510 1506 1503 1500 1495 1492 1489 1485 1480 1476 1472 1467 1463 1459 1455 1449 1446 1444 1440 1436 1432 1429 1424 1421 1418 1416 1414 1413 1412 1411 1410 1409 1408 1407 1404 1405 1406 1406 1406 1406
1521 1518 1515 1511 1508 1504 1500 1496 1493 1490 1486 1483 1479 1474 1470 1466 1461 1457 1452 1447 1444 1441 1438 1434 1431 1428 1425 1421 1418 1415 1412 1410 1409 1408 1406 1405 1404 1403 1401 1400 1401 1401 1401
1522 1519 1516 1513 1509 1505 1502 1498 1495 1491 1488 1484 1481 1477 1473 1468 1463 1460 1455 1450 1446 1442 1439 1435 1432 1430 1427 1423 1419 1416 1413 1411 1409 1407 1405 1403 1400 1399 1397 1397 1397 1396 1396
1522 1520 1518 1515 1511 1507 1503 1499 1496 1492 1487 1484 1480 1477 1473 1470 1464 1461 1457 1452 1448 1444 1440 1436 1432 1430 1427 1424 1421 1418 1415 1413 1410 1407 1405 1403 1400 1398 1396 1394 1393 1392 1391
1522 1521 1518 1515 1511 1508 1505 1501 1497 1493 1489 1484 1480 1477 1474 1470 1466 1461 1457 1454 1450 1445 1441 1438 1435 1431 1428 1424 1421 1418 1414 1411 1409 1407 1405 1402 1400 1398 1395 1393 1392 1390 1389
1523 1521 1519 1516 1513 1509 1506 1502 1498 1495 1491 1486 1482 1478 1474 1471 1466 1463 1458 1454 1450 1446 1444 1440 1437 1433 1429 1424 1421 1418 1413 1410 1407 1404 1402 1400 1398 1396 1394 1392 1390 1388 1386
1522 1521 1519 1516 1513 1510 1508 1505 1501 1497 1493 1489 1484 1480 1476 1472 1467 1463 1459 1456 1452 1448 1445 1441 1439 1434 1430 1426 1422 1417 1414 1411 1407 1404 1401 1399 1396 1393 1392 1390 1388 1385 1383
1521 1520 1518 1516 1513 1511 1509 1505 1502 1498 1495 1491 1488 1484 1479 1475 1471 1467 1462 1457 1453 1449 1446 1442 1437 1433 1430 1426 1423 1419 1415 1411 1407 1404 1400 1397 1394 1391 1389 1387 1385 1383 1381
1519 1520 1518 1516 1514 1512 1509 1506 1503 1501 1498 1495 1492 1488 1484 1480 1476 1471 1466 1461 1456 1451 1447 1442 1438 1435 1431 1427 1423 1420 1416 1412 1408 1405 1401 1397 1393 1389 1387 1384 1383 1380 1378
1518 1519 1518 1516 1514 1511 1510 1507 1505 1503 1501 1496 1493 1491 1486 1482 1477 1473 1468 1463 1459 1454 1448 1444 1440 1437 1433 1429 1425 1421 1417 1413 1409 1405 1401 1398 1394 1391 1387 1384 1381 1378 1374
1517 1517 1516 1515 1513 1513 1511 1509 1506 1504 1499 1498 1494 1491 1487 1483 1478 1474 1470 1466 1460 1455 1451 1447 1442 1438 1435 1431 1426 1422 1418 1414 1411 1407 1403 1399 1395 1391 1387 1383 1380 1376 1372
1514 1515 1515 1515 1514 1512 1510 1510 1507 1503 1500 1496 1494 1492 1489 1485 1480 1476 1471 1466 1461 1457 1452 1448 1444 1440 1436 1433 1428 1424 1420 1415 1412 1408 1404 1400 1396 1391 1387 1384 1380 1376 1372
1512 1512 1512 1512 1512 1511 1511 1508 1504 1502 1500 1497 1495 1492 1487 1484 1479 1475 1471 1467 1463 1459 1455 1451 1447 1442 1437 1433 1429 1425 1421 1417 1412 1409 1405 1401 1397 1393 1390 1386 1382 1378 1373
1510 1510 1510 1510 1508 1507 1507 1506 1504 1500 1497 1496 1495 1491 1489 1484 1482 1480 1477 1471 1466 1462 1457 1453 1448 1444 1439 1433 1429 1425 1421 1417 1414 1410 1406 1403 1399 1395 1392 1389 1384 1380 1376
1507 1507 1507 1506 1505 1504 1504 1502 1500 1499 1499 1499 1495 1490 1489 1486 1481 1478 1473 1469 1466 1462 1458 1454 1449 1444 1440 1435 1430 1426 1421 1418 1414 1410 1406 1403 1399 1396 1392 1388 1384 1380 1375
1504 1504 1504 1504 1503 1502 1501 1499 1498 1496 1495 1492 1489 1488 1484 1480 1478 1477 1474 1471 1468 1464 1460 1455 1451 1447 1442 1436 1432 1427 1422 1417 1413 1410 1406 1403 1399 1395 1391 1387 1383 1378 1374
1502 1502 1502 1501 1500 1500 1499 1498 1496 1495 1493 1491 1488 1487 1485 1482 1479 1477 1475 1472 1469 1465 1461 1456 1452 1446 1441 1437 1433 1428 1424 1419 1414 1410 1406 1403 1399 1395 1391 1387 1382 1377 1373
1500 1500 1499 1499 1499 1498 1497 1495 1494 1493 1491 1489 1486 1484 1481 1479 1477 1475 1472 1468 1465 1461 1457 1454 1451 1447 1443 1438 1434 1429 1425 1421 1416 1411 1408 1404 1399 1395 1391 1387 1383 1378 1373
1497 1498 1498 1497 1496 1496 1495 1494 1492 1490 1489 1487 1485 1481 1479 1476 1473 1471 1468 1466 1462 1459 1456 1453 1450 1446 1442 1439 1434 1430 1426 1421 1417 1412 1408 1404 1400 1396 1392 1388 1384 1379 1375
Wind_Speed
23 25 27 24 24 30 30 19 25 29 28 29 32 28 30 20 13 13 11 10 9 10 9 8 9 8 7 6 6 9 12 13 15 15 10 9 15 12 14 10 18 15 17
22 24 28 21 24 28 31 21 26 28 27 26 28 28 30 29 22 17 17 14 11 11 10 8 6 8 10 9 6 7 10 12 16 21 18 17 12 13 14 20 17 18 17
22 23 27 26 25 23 29 25 25 24 26 26 29 26 27 28 28 24 21 19 16 16 17 12 11 8 7 11 9 9 9 8 10 14 17 16 17 16 15 15 21 24 15
23 23 26 25 27 21 22 27 28 18 24 27 24 27 26 25 24 25 23 25 21 15 15 19 12 9 6 10 10 13 6 9 10 13 16 17 15 13 18 18 17 15 20
22 23 24 23 23 24 19 24 26 27 21 24 21 24 28 26 24 20 21 20 26 20 19 19 21 10 10 11 8 8 11 13 13 13 12 17 18 15 16 18 20 22 27
21 21 23 24 23 26 16 19 24 25 24 27 23 20 25 29 25 20 17 19 19 26 24 19 21 20 6 2 7 2 5 9 13 15 11 14 16 16 16 17 19 20 26
20 20 22 24 23 24 21 21 23 26 22 26 29 25 26 29 26 22 17 19 18 19 18 22 22 24 24 4 7 8 10 3 5 5 10 15 17 17 15 18 19 20 19
18 20 21 23 23 21 21 22 23 23 26 22 26 29 26 25 27 26 18 16 19 22 20 17 21 21 20 21 14 8 7 7 8 10 13 12 10 14 18 17 17 20 23
17 19 20 22 22 22 21 21 21 21 22 26 24 26 29 23 24 25 27 18 17 18 20 19 18 18 18 20 17 16 12 9 7 9 10 13 16 17 7 15 20 21 23
16 18 19 20 20 22 21 21 20 19 21 19 22 21 25 29 23 24 24 27 22 19 19 18 17 18 16 16 18 17 17 14 12 12 10 10 9 8 9 13 17 16 19
14 15 16 18 19 20 19 20 22 19 18 20 18 23 22 25 26 22 22 23 25 23 21 22 21 19 17 16 17 18 16 16 16 14 14 16 14 10 9 8 7 11 18
12 13 14 15 16 18 19 19 22 22 22 23 22 23 24 25 25 24 22 20 19 20 20 21 22 18 17 15 17 17 13 11 8 10 13 15 18 15 12 11 10 9 9
11 11 12 13 13 15 18 19 22 23 24 25 26 26 27 28 26 24 24 23 20 18 19 18 20 18 18 18 17 16 16 15 13 12 11 11 11 12 12 15 15 12 11
7 9 10 10 11 12 14 17 20 22 23 24 26 27 27 28 28 27 26 23 22 19 22 18 18 19 19 19 19 19 17 18 17 15 14 13 13 12 12 12 14 12 13
4 5 7 9 10 12 13 14 15 17 21 23 24 25 27 27 26 24 24 25 25 22 19 19 21 22 23 23 22 20 20 20 20 17 17 17 15 13 11 11 12 14 15
2 4 6 7 8 10 11 12 13 15 16 18 21 22 21 21 23 22 22 22 23 22 22 23 24 24 24 23 23 22 20 20 20 19 19 18 18 15 12 12 12 14 15
4 4 6 7 8 9 10 12 13 12 15 17 18 19 18 19 22 22 22 21 22 23 25 25 24 25 24 23 22 21 21 20 20 19 18 18 20 15 15 15 13 13 15
4 5 6 7 7 9 10 10 11 13 13 14 14 17 16 16 18 20 22 21 24 25 26 26 25 24 23 23 22 21 20 19 19 18 20 20 18 18 17 16 17 17 17
5 6 7 8 8 9 9 10 10 11 11 12 12 13 15 15 17 19 21 23 23 24 24 24 24 24 24 23 22 21 20 19 19 18 18 19 20 19 18 18 19 18 17
7 7 7 7 8 9 10 10 10 11 12 13 14 16 16 14 16 18 19 20 21 22 23 23 23 23 23 23 23 22 20 19 18 18 18 17 16 17 19 19 21 25 26
7 8 8 7 8 9 9 10 11 12 13 13 14 15 16 16 18 19 20 20 21 21 22 22 22 22 22 23 24 23 22 20 18 17 15 15 13 13 14 17 17 19 23
7 8 8 8 8 9 8 9 10 12 14 15 15 14 15 16 16 17 16 16 17 18 19 20 21 21 22 23 23 23 23 22 20 18 17 15 14 14 15 17 17 18 19
8 8 8 9 9 9 9 10 11 12 12 12 14 14 14 14 15 16 17 17 17 18 18 18 19 20 20 21 22 22 23 23 22 20 19 17 17 17 18 18 19 20 20
8 8 9 10 10 9 10 10 11 12 13 13 14 15 15 17 16 16 17 17 18 18 18 19 19 18 19 21 21 21 22 22 21 21 19 19 19 19 19 19 20 19 20
8 8 9 9 10 10 11 12 12 12 13 14 14 15 15 17 17 17 17 16 17 17 16 16 18 19 19 20 20 20 20 20 20 19 19 19 19 19 19 19 20 20 20
8 8 8 9 10 10 10 11 12 13 14 14 15 16 16 16 16 16 16 17 18 18 18 18 17 18 18 19 20 20 20 19 19 19 19 20 19 19 20 20 20 20 20
Wind_Direction
2 359 342 360 12 357 357 7 13 7 5 8 15 28 34 25 23 20 20 26 23 12 13 350 333 332 327 311 302 272 255 250 266 263 268 271 254 277 233 229 223 235 249
4 358 345 6 16 3 1 20 20 11 6 11 14 24 31 24 29 16 11 5 354 341 331 327 310 335 331 325 293 277 269 262 268 272 273 241 264 278 271 263 250 232 245
6 358 350 9 6 10 3 14 20 14 9 17 24 23 25 23 18 29 32 27 22 19 7 325 292 284 308 310 305 309 269 263 267 277 279 276 258 259 275 272 249 234 231
9 360 355 8 1 10 11 6 9 15 17 11 18 27 32 24 14 13 20 26 31 29 21 11 350 277 287 305 293 283 280 270 279 272 270 276 280 265 256 266 271 229 228
6 1 359 5 4 2 21 10 7 17 20 12 19 28 27 30 17 9 17 22 21 29 32 25 15 349 265 309 301 282 280 274 267 275 277 275 267 272 269 260 254 248 249
4 4 3 6 9 1 12 24 10 10 3 15 22 28 28 29 18 18 12 15 18 28 23 28 24 17 344 312 24 60 18 310 252 268 273 283 281 280 266 254 258 262 252
4 10 10 9 11 4 16 29 15 5 10 3 12 23 29 29 20 18 14 20 12 10 15 21 22 22 20 342 271 298 320 337 22 261 286 290 285 277 274 273 262 258 254
9 14 15 13 10 11 17 25 18 9 9 9 5 13 20 23 17 19 19 23 21 5 9 19 14 16 22 17 12 332 299 287 283 284 284 292 301 281 264 267 267 265 262
16 16 15 12 10 13 16 19 17 8 7 10 8 6 13 21 20 14 13 23 28 12 7 11 16 18 14 3 7 18 16 357 336 317 300 293 282 273 276 247 254 262 263
18 15 14 9 9 12 13 14 12 13 12 8 6 8 7 12 16 11 5 8 14 12 9 6 21 10 8 10 1 5 4 10 8 4 4 352 341 317 299 273 260 260 259
20 13 15 12 15 13 15 18 13 14 16 15 17 13 17 8 3 10 9 5 360 2 3 8 13 6 2 2 4 9 355 342 352 355 348 348 344 345 349 342 316 277 263
23 11 14 15 20 21 20 24 22 21 24 24 21 23 20 14 10 11 9 8 4 355 1 9 359 358 2 4 2 1 348 340 331 343 340 342 342 338 337 331 325 324 315
25 8 10 12 17 26 29 30 32 30 29 29 26 24 23 19 17 17 15 12 11 17 19 9 2 5 6 6 6 4 2 3 348 326 317 317 325 328 327 321 320 313 307
29 8 8 12 17 20 27 26 29 31 31 28 25 24 22 20 19 19 19 17 19 18 16 13 3 11 14 12 13 10 5 4 358 353 348 337 326 305 303 304 310 312 299
30 358 3 9 13 15 20 22 23 24 23 22 20 19 15 18 17 15 18 22 18 16 13 17 16 15 15 14 15 15 16 15 10 7 2 356 345 331 316 316 308 305 301
341 344 346 360 7 8 13 16 20 22 21 19 16 13 14 18 20 22 23 22 23 22 24 22 18 14 11 7 10 13 15 11 7 9 13 6 358 357 350 329 313 311 310
314 328 326 340 348 353 3 7 12 26 20 20 16 14 14 22 22 23 26 28 26 25 28 25 21 15 10 9 9 10 10 13 9 6 7 8 8 8 3 357 344 331 324
293 295 307 317 329 344 347 358 3 7 10 19 20 17 16 17 26 23 23 24 28 29 26 22 20 17 14 11 10 8 8 9 10 9 11 10 8 6 3 355 351 344 336
275 294 308 310 315 327 334 346 350 349 354 355 2 16 17 16 23 20 19 22 23 23 21 21 19 18 17 15 12 10 7 6 3 3 6 8 12 14 12 10 8 7 357
261 279 289 306 310 319 327 327 330 333 338 343 351 357 0 6 17 18 18 17 18 20 21 18 17 18 19 17 14 11 8 6 8 10 12 12 19 26 31 28 29 29 24
256 271 284 297 302 309 318 322 323 323 326 336 344 343 349 354 1 6 8 11 12 11 12 14 15 14 16 17 15 13 10 7 5 5 5 12 19 28 27 22 10 3 359
264 268 280 289 291 300 314 312 316 319 328 336 336 337 343 346 350 355 358 3 6 6 4 4 9 12 11 11 10 11 11 8 6 3 2 357 349 345 342 344 344 342 344
262 269 276 286 294 302 300 306 311 317 323 327 325 330 333 335 342 344 347 353 354 356 0 2 1 3 7 10 8 5 8 8 6 2 0 357 355 352 349 346 345 345 345
264 276 283 285 291 293 297 305 306 312 318 319 322 331 332 335 336 338 341 345 346 349 351 352 356 358 0 3 5 5 3 5 6 3 1 360 1 358 354 353 353 353 352
262 270 280 289 295 298 298 301 303 306 311 318 322 324 327 331 336 341 342 338 336 335 341 345 348 352 356 358 358 1 5 0 359 3 2 5 6 5 5 4 5 7 8
258 275 289 298 301 303 305 306 307 312 318 321 324 325 331 332 340 342 337 333 334 336 340 341 344 347 349 353 356 357 357 2 0 0 1 1 5 7 9 9 9 11 14